| time (UTC) | temp F | wind direction | speed MPH | gust MPH | rain 1hr in | rain 24hr in | rain mn in | humidity % | barometer mb |
| 20260901170302 | 82 | 60 | 6.0 | 0.0 | 0.00 | 0.00 | 0.00 | 37 | 1015.0 |
| 20260901164803 | 86 | 90 | 7.0 | 0.0 | 0.00 | 0.00 | 0.00 | 33 | 1015.0 |
| 20260901163309 | 86 | 90 | 7.0 | 0.0 | 0.00 | 0.00 | 0.00 | 33 | 1015.0 |
| 20260901161802 | 88 | 90 | 6.0 | 0.0 | 0.00 | 0.00 | 0.00 | 31 | 1015.0 |
| 20260901160306 | 88 | 90 | 6.0 | 0.0 | 0.00 | 0.00 | 0.00 | 31 | 1015.0 |
| 20260901154802 | 88 | 1.0 | 0.0 | 0.00 | 0.00 | 0.00 | 33 | 1015.0 | |
| 20260901153302 | 88 | 1.0 | 0.0 | 0.00 | 0.00 | 0.00 | 33 | 1015.0 | |
| 20260901151802 | 86 | 240 | 3.0 | 0.0 | 0.00 | 0.00 | 0.00 | 31 | 1015.0 |
| 20260901150302 | 86 | 240 | 3.0 | 0.0 | 0.00 | 0.00 | 0.00 | 31 | 1015.0 |
| 20260901144840 | 90 | 300 | 8.0 | 0.0 | 0.00 | 0.00 | 0.00 | 27 | 1015.0 |
| 20260901143302 | 90 | 300 | 8.0 | 0.0 | 0.00 | 0.00 | 0.00 | 27 | 1015.0 |
| 20260901141815 | 90 | 310 | 7.0 | 0.0 | 0.00 | 0.00 | 0.00 | 29 | 1015.0 |
| 20260901140415 | 91 | 3.0 | 0.0 | 0.00 | 0.00 | 0.00 | 24 | 1015.0 | |
| 20260901134802 | 91 | 3.0 | 0.0 | 0.00 | 0.00 | 0.00 | 24 | 1015.0 | |
| 20260901133302 | 91 | 3.0 | 0.0 | 0.00 | 0.00 | 0.00 | 24 | 1015.0 | |
| 20260901131810 | 90 | 270 | 6.0 | 0.0 | 0.00 | 0.00 | 0.00 | 24 | 1015.0 |
| 20260901130301 | 90 | 270 | 6.0 | 0.0 | 0.00 | 0.00 | 0.00 | 24 | 1015.0 |
| 20260901124808 | 90 | 5.0 | 0.0 | 0.00 | 0.00 | 0.00 | 24 | 1016.0 | |
| 20260901123302 | 90 | 5.0 | 0.0 | 0.00 | 0.00 | 0.00 | 24 | 1016.0 | |
| 20260901121801 | 90 | 320 | 7.0 | 0.0 | 0.00 | 0.00 | 0.00 | 24 | 1016.0 |
| 20260901120302 | 90 | 320 | 7.0 | 0.0 | 0.00 | 0.00 | 0.00 | 24 | 1016.0 |
| 20260901114802 | 88 | 300 | 6.0 | 0.0 | 0.00 | 0.00 | 0.00 | 24 | 1016.0 |
| 20260901113302 | 88 | 300 | 6.0 | 0.0 | 0.00 | 0.00 | 0.00 | 24 | 1016.0 |
| 20260901111802 | 88 | 170 | 3.0 | 0.0 | 0.00 | 0.00 | 0.00 | 24 | 1016.0 |
| 20260901110302 | 88 | 170 | 3.0 | 0.0 | 0.00 | 0.00 | 0.00 | 24 | 1016.0 |
| 20260901104802 | 86 | 3.0 | 0.0 | 0.00 | 0.00 | 0.00 | 25 | 1016.0 | |
| 20260901103302 | 86 | 3.0 | 0.0 | 0.00 | 0.00 | 0.00 | 25 | 1016.0 | |
| 20260901101858 | 86 | 1.0 | 0.0 | 0.00 | 0.00 | 0.00 | 25 | 1016.0 | |
| 20260901100304 | 86 | 1.0 | 0.0 | 0.00 | 0.00 | 0.00 | 25 | 1016.0 | |
| 20260901094803 | 84 | 2.0 | 0.0 | 0.00 | 0.00 | 0.00 | 27 | 1016.0 | |
| 20260901093302 | 84 | 2.0 | 0.0 | 0.00 | 0.00 | 0.00 | 27 | 1016.0 | |
| 20260901091802 | 82 | 90 | 5.0 | 0.0 | 0.00 | 0.00 | 0.00 | 28 | 1017.0 |
| 20260901090303 | 82 | 90 | 5.0 | 0.0 | 0.00 | 0.00 | 0.00 | 28 | 1017.0 |
| 20260901084802 | 81 | 40 | 5.0 | 0.0 | 0.00 | 0.00 | 0.00 | 32 | 1017.0 |
| 20260901083311 | 81 | 40 | 5.0 | 0.0 | 0.00 | 0.00 | 0.00 | 32 | 1017.0 |
| 20260901081801 | 81 | 50 | 6.0 | 0.0 | 0.00 | 0.00 | 0.00 | 39 | 1017.0 |
| 20260901080304 | 81 | 50 | 6.0 | 0.0 | 0.00 | 0.00 | 0.00 | 39 | 1017.0 |
| 20260901074808 | 77 | 60 | 6.0 | 0.0 | 0.00 | 0.00 | 0.00 | 47 | 1017.0 |
| 20260901073302 | 77 | 60 | 6.0 | 0.0 | 0.00 | 0.00 | 0.00 | 47 | 1017.0 |
| 20260901071801 | 75 | 50 | 5.0 | 0.0 | 0.00 | 0.00 | 0.00 | 50 | 1017.0 |
| 20260901070301 | 75 | 50 | 5.0 | 0.0 | 0.00 | 0.00 | 0.00 | 50 | 1017.0 |
| 20260901064802 | 72 | 30 | 6.0 | 0.0 | 0.00 | 0.00 | 0.00 | 57 | 1017.0 |
| 20260901063302 | 72 | 30 | 6.0 | 0.0 | 0.00 | 0.00 | 0.00 | 57 | 1017.0 |
| 20260901061802 | 70 | 350 | 6.0 | 0.0 | 0.00 | 0.00 | 0.00 | 57 | 1017.0 |
| 20260901060302 | 70 | 350 | 6.0 | 0.0 | 0.00 | 0.00 | 0.00 | 57 | 1017.0 |
| 20260901054802 | 68 | 20 | 5.0 | 0.0 | 0.00 | 0.00 | 0.00 | 64 | 1017.0 |
| 20260901053302 | 68 | 20 | 5.0 | 0.0 | 0.00 | 0.00 | 0.00 | 64 | 1017.0 |
| 20260901051802 | 64 | 30 | 6.0 | 0.0 | 0.00 | 0.00 | 0.00 | 73 | 1016.0 |
| 20260901050302 | 64 | 30 | 6.0 | 0.0 | 0.00 | 0.00 | 0.00 | 73 | 1016.0 |
| 20260901044825 | 64 | 20 | 7.0 | 0.0 | 0.00 | 0.00 | 0.00 | 73 | 1016.0 |
| 20260901043302 | 64 | 20 | 7.0 | 0.0 | 0.00 | 0.00 | 0.00 | 73 | 1016.0 |
| 20260901041802 | 63 | 30 | 6.0 | 0.0 | 0.00 | 0.00 | 0.00 | 77 | 1016.0 |
| 20260901040301 | 63 | 30 | 6.0 | 0.0 | 0.00 | 0.00 | 0.00 | 77 | 1016.0 |
| 20260901034802 | 61 | 50 | 3.0 | 0.0 | 0.00 | 0.00 | 0.00 | 83 | 1016.0 |
| 20260901033302 | 61 | 50 | 3.0 | 0.0 | 0.00 | 0.00 | 0.00 | 83 | 1016.0 |
| 20260901031801 | 63 | 90 | 3.0 | 0.0 | 0.00 | 0.00 | 0.00 | 73 | 1016.0 |
| 20260901030301 | 63 | 90 | 3.0 | 0.0 | 0.00 | 0.00 | 0.00 | 73 | 1016.0 |
| 20260901024802 | 63 | 60 | 3.0 | 0.0 | 0.00 | 0.00 | 0.00 | 73 | 1016.0 |
| 20260901023301 | 63 | 60 | 3.0 | 0.0 | 0.00 | 0.00 | 0.00 | 73 | 1016.0 |
| 20260901021802 | 64 | 60 | 3.0 | 0.0 | 0.00 | 0.00 | 0.00 | 68 | 1016.0 |
| 20260901020301 | 64 | 60 | 3.0 | 0.0 | 0.00 | 0.00 | 0.00 | 68 | 1016.0 |
| 20260901014802 | 64 | 40 | 5.0 | 0.0 | 0.00 | 0.00 | 0.00 | 68 | 1016.0 |
| 20260901013302 | 64 | 40 | 5.0 | 0.0 | 0.00 | 0.00 | 0.00 | 68 | 1016.0 |
| 20260901011802 | 64 | 60 | 3.0 | 0.0 | 0.00 | 0.00 | 0.00 | 68 | 1016.0 |
| 20260901010303 | 64 | 60 | 3.0 | 0.0 | 0.00 | 0.00 | 0.00 | 68 | 1016.0 |
| 20260901004802 | 64 | 50 | 3.0 | 0.0 | 0.00 | 0.00 | 0.00 | 68 | 1017.0 |
| 20260901003302 | 64 | 50 | 3.0 | 0.0 | 0.00 | 0.00 | 0.00 | 68 | 1017.0 |
| 20260901001801 | 66 | 10 | 7.0 | 0.0 | 0.00 | 0.00 | 0.00 | 60 | 1017.0 |
| 20260901000303 | 66 | 10 | 7.0 | 0.0 | 0.00 | 0.00 | 0.00 | 60 | 1017.0 |
| 20260831234802 | 68 | 10 | 8.0 | 0.0 | 0.00 | 0.00 | 0.00 | 56 | 1017.0 |
| 20260831233302 | 68 | 10 | 8.0 | 0.0 | 0.00 | 0.00 | 0.00 | 56 | 1017.0 |
| 20260831231803 | 68 | 30 | 5.0 | 0.0 | 0.00 | 0.00 | 0.00 | 53 | 1017.0 |
| 20260831230302 | 68 | 30 | 5.0 | 0.0 | 0.00 | 0.00 | 0.00 | 53 | 1017.0 |
| 20260831224801 | 68 | 60 | 3.0 | 0.0 | 0.00 | 0.00 | 0.00 | 49 | 1017.0 |
| 20260831223302 | 68 | 60 | 3.0 | 0.0 | 0.00 | 0.00 | 0.00 | 49 | 1017.0 |
| 20260831221802 | 68 | 140 | 3.0 | 0.0 | 0.00 | 0.00 | 0.00 | 53 | 1017.0 |
| 20260831220302 | 68 | 140 | 3.0 | 0.0 | 0.00 | 0.00 | 0.00 | 53 | 1017.0 |
| 20260831214802 | 68 | 2.0 | 0.0 | 0.00 | 0.00 | 0.00 | 56 | 1017.0 | |
| 20260831213302 | 68 | 2.0 | 0.0 | 0.00 | 0.00 | 0.00 | 56 | 1017.0 | |
| 20260831211801 | 68 | 120 | 5.0 | 0.0 | 0.00 | 0.00 | 0.00 | 56 | 1017.0 |
| 20260831210301 | 68 | 120 | 5.0 | 0.0 | 0.00 | 0.00 | 0.00 | 56 | 1017.0 |
| 20260831204803 | 70 | 110 | 5.0 | 0.0 | 0.00 | 0.00 | 0.00 | 50 | 1017.0 |
| 20260831203303 | 70 | 110 | 5.0 | 0.0 | 0.00 | 0.00 | 0.00 | 50 | 1017.0 |
| 20260831201802 | 72 | 130 | 6.0 | 0.0 | 0.00 | 0.00 | 0.00 | 44 | 1017.0 |
| 20260831200301 | 72 | 130 | 6.0 | 0.0 | 0.00 | 0.00 | 0.00 | 44 | 1017.0 |
| 20260831194802 | 72 | 130 | 5.0 | 0.0 | 0.00 | 0.00 | 0.00 | 47 | 1016.0 |
| 20260831193302 | 72 | 130 | 5.0 | 0.0 | 0.00 | 0.00 | 0.00 | 47 | 1016.0 |
| 20260831191802 | 73 | 130 | 6.0 | 0.0 | 0.00 | 0.00 | 0.00 | 41 | 1016.0 |
| 20260831190304 | 73 | 130 | 6.0 | 0.0 | 0.00 | 0.00 | 0.00 | 41 | 1016.0 |
| 20260831184803 | 75 | 140 | 7.0 | 0.0 | 0.00 | 0.00 | 0.00 | 44 | 1016.0 |
| 20260831183302 | 75 | 140 | 7.0 | 0.0 | 0.00 | 0.00 | 0.00 | 44 | 1016.0 |
| 20260831181803 | 75 | 110 | 2.0 | 0.0 | 0.00 | 0.00 | 0.00 | 44 | 1016.0 |
| 20260831180302 | 75 | 110 | 2.0 | 0.0 | 0.00 | 0.00 | 0.00 | 44 | 1016.0 |
| 20260831174802 | 75 | 120 | 2.0 | 0.0 | 0.00 | 0.00 | 0.00 | 44 | 1016.0 |
| 20260831173302 | 75 | 120 | 2.0 | 0.0 | 0.00 | 0.00 | 0.00 | 44 | 1016.0 |
| 20260831171802 | 79 | 130 | 5.0 | 0.0 | 0.00 | 0.00 | 0.00 | 42 | 1016.0 |